Home > Weather > Tunis > Past weeks

Flag for Tunisia Weather for the Past 2 Weeks in Tunis, Tunisia

Now
52 °F

Passing clouds.


Feels Like: 49 °F
Forecast: 49 / 67 °F
Wind: 8 mph from West

Location: Tunis-Carthage

Current Time: Feb 8, 2016 at 5:39:29 AM

Latest Report: Feb 8, 2016 at 5:00 AM


Visibility: 5 mi

Pressure: 30.09 "Hg

Humidity: 88%

Dew point: 48 °F

Location of TunisLocation

Historic Weather in Tunis — Graph

°F

Tunis Temperature Yesterday

Maximum temperature yesterday: 70 °F (at 1:00 PM)
Minimum temperature yesterday: 45 °F (at 8:00 AM)
Average temperature yesterday: 57 °F

High & Low Weather Summary for the Past Weeks

 TemperatureHumidityPressure
High70 °F (Feb 7, 1:00 PM)100% (Jan 25, 3:30 AM)30.60 "Hg (Jan 25, 3:30 AM)
Low39 °F (Jan 26, 5:00 AM)31% (Feb 7, 1:00 PM)29.95 "Hg (Feb 7, 3:00 PM)
Average55 °F77%30.38 "Hg
* Reported Jan 24 4:00 AM — Feb 8 4:00 AM, Tunis, Weather by CustomWeather, © 2016

Note: Actual official high and low records may vary slightly from our data, if they occured in-between our weather recording intervals... More about our weather records

Advertising

Tunis Weather History for the Previous 24 Hours

 ConditionsComfort  
Time TempWeatherWind HumidityBarometerVisibility
4:00 AM
Mon, Feb 8
52 °FPassing clouds.7 mph82%30.09 "Hg5 mi
3:30 AM52 °FPassing clouds.9 mph82%30.09 "Hg5 mi
3:00 AM52 °FPassing clouds.8 mph82%30.09 "Hg5 mi
2:30 AM52 °FLight rain. Passing clouds.8 mph77%30.09 "Hg5 mi
2:00 AM52 °FLight rain. Passing clouds.6 mph82%30.09 "Hg5 mi
1:30 AM52 °FPassing clouds.5 mph77%30.09 "Hg5 mi
1:00 AM52 °FPassing clouds.3 mph82%30.09 "Hg5 mi
12:00 AM52 °FPassing clouds.6 mph82%30.09 "Hg5 mi
11:30 PM
Sun, Feb 7
52 °FPassing clouds.5 mph82%30.09 "Hg5 mi
11:00 PM52 °FPassing clouds.6 mph88%30.12 "Hg5 mi
10:30 PM52 °FPassing clouds.7 mph88%30.12 "Hg5 mi
10:00 PM52 °FPassing clouds.6 mph88%30.12 "Hg5 mi
9:30 PM54 °FLight rain. Passing clouds.10 mph82%30.09 "Hg5 mi
9:00 PM54 °FLight rain. Passing clouds.18 mph82%30.07 "Hg5 mi
8:30 PM54 °FLight rain. Passing clouds.16 mph82%30.07 "Hg5 mi
8:00 PM57 °FPassing clouds.14 mph82%30.07 "Hg5 mi
7:30 PM57 °FPassing clouds.17 mph88%30.04 "Hg5 mi
7:00 PM61 °FLight rain. Passing clouds.15 mph68%30.01 "Hg5 mi
6:30 PM66 °FPassing clouds.7 mph46%29.98 "HgN/A
6:00 PM64 °FPassing clouds.5 mph49%29.95 "HgN/A
5:30 PM66 °FScattered clouds.5 mph40%29.95 "HgN/A
4:30 PM66 °FScattered clouds.9 mph40%29.95 "HgN/A
4:00 PM68 °FScattered clouds.9 mph40%29.95 "HgN/A
3:30 PM68 °FScattered clouds.8 mph40%29.95 "HgN/A
3:00 PM70 °FScattered clouds.12 mph35%29.95 "HgN/A
2:30 PM70 °FPassing clouds.10 mph35%29.98 "HgN/A
2:00 PM70 °FPassing clouds.13 mph35%29.98 "HgN/A
1:30 PM70 °FPassing clouds.14 mph35%30.01 "HgN/A
1:00 PM70 °FPassing clouds.13 mph31%30.04 "HgN/A
12:30 PM66 °FPassing clouds.7 mph37%30.07 "HgN/A
12:00 PM64 °FPassing clouds.6 mph40%30.07 "HgN/A
11:30 AM63 °FPassing clouds.10 mph42%30.09 "HgN/A
11:00 AM59 °FPassing clouds.8 mph48%30.12 "HgN/A
10:30 AM57 °FPassing clouds.8 mph44%30.12 "HgN/A
10:00 AM57 °FScattered clouds.7 mph44%30.12 "HgN/A
9:30 AM54 °FScattered clouds.7 mph47%30.12 "HgN/A
9:00 AM52 °FScattered clouds.5 mph54%30.15 "HgN/A
8:30 AM50 °FScattered clouds.No wind58%30.15 "HgN/A
8:00 AM45 °FScattered clouds.2 mph71%30.15 "HgN/A
7:30 AM46 °FScattered clouds.5 mph62%30.15 "HgN/A
7:00 AM46 °FPassing clouds.5 mph66%30.15 "HgN/A
6:30 AM48 °FPassing clouds.No wind62%30.15 "HgN/A
6:00 AM46 °FPassing clouds.3 mph66%30.15 "HgN/A
5:30 AM50 °FPassing clouds.2 mph54%30.15 "HgN/A
5:00 AM50 °FPassing clouds.8 mph54%30.15 "HgN/A
Weather by CustomWeather, © 2016

See weather overviewHow to use our weather pages